Location: Lane
(33.5226°N, 79.8788°W)
Time: 20:07:40
(UTC+00:00)

Courier 1B - Pass Details

Date: 04 October 2022
Orbit: 962 x 1209 km, 28.3° (Epoch: 30 November)

Event Time Altitude Azimuth Distance (km) Brightness Sun altitude
Rises 00:01:28 0° 270° (W) 3,812 12.6 -13.4°
Reaches altitude 10° 00:04:36 10° 260° (W) 2,817 11.2 -14.1°
Maximum altitude 00:10:18 29° 202° (SSW) 1,726 9.0 -15.2°
Drops below altitude 10° 00:15:49 10° 144° (SE) 2,704 9.4 -16.4°
Enters shadow 00:15:54 10° 144° (SE) 2,725 9.5 -16.4°
